Location: Αθήνα
(37.9839°N, 23.7283°E)
Time: 19:33:43
(UTC+03:00)

ISS - Visible Passes

Search period start: 18 June 2024 00:00
Search period end: 28 June 2024 00:00
Orbit: 411 x 425 km, 51.6° (Epoch: 18 June)

Date Brightness Start Highest point End Pass type
(mag) Time Alt. Az. Time Alt. Az. Time Alt. Az.
21 Jun -2.1 04:47:38 14° S 04:49:46 24° SE 04:52:32 10° ENE visible
22 Jun -1.4 04:01:36 14° SE 04:01:57 14° SE 04:03:43 10° E visible
23 Jun -3.8 04:48:24 23° SW 04:50:21 82° SE 04:53:42 10° NE visible
24 Jun -3.2 04:02:12 42° SE 04:02:23 42° SE 04:05:34 10° ENE visible
25 Jun -1.4 03:15:54 17° E 03:15:54 17° E 03:17:09 10° ENE visible
25 Jun -2.5 04:48:49 15° W 04:51:04 34° NNW 04:54:09 10° NE visible
26 Jun -3.5 04:02:26 50° WNW 04:02:55 57° NW 04:06:13 10° NE visible
27 Jun -2.4 03:15:59 36° ENE 03:15:59 36° ENE 03:18:07 10° NE visible
27 Jun -1.3 04:49:39 10° WNW 04:51:54 17° NNW 04:54:10 10° NNE visible
